Regional Weather Roundup
Issued by NWS

Home | Current Version | Previous Version | Text Only | Print | Product List | Glossary Off
Versions: 1 2 3 4 5 6 7 8 9 10 11 12 13 14 15 16 17 18 19 20 21 22 23 24 25 26 27 28 29 30 31 32 33 34 35 36 37 38 39 40 41 42 43 44 45 46 47 48 49 50

000
ASUS45 KBOU 282207
RWRCO

WEATHER ROUNDUP FOR COLORADO
NATIONAL WEATHER SERVICE DENVER/BOULDER CO
400 PM MDT FRI AUG 28 2015

NOTE: "FAIR" INDICATES FEW OR NO CLOUDS BELOW 12000 FEET WITH NO
SIGNIFICANT WEATHER AND/OR OBSTRUCTIONS TO VISIBILITY.

COZ001>005-013-030-031-282300-
...NORTHWEST COLORADO...

CITY           SKY/WX    TMP DP  RH WIND       PRES   REMARKS
CRAIG          SUNNY     81  39  22 VRB3      30.28F
HAYDEN         NOT AVBL
MEEKER         SUNNY     80  40  23 SE8       30.29F
MOUNT WERNER   NOT AVBL
STEAMBOAT SPGS SUNNY     75  45  34 W7        30.33F
WALDEN         MOSUNNY   70  36  28 NW6       30.41F
$$

COZ006>008-011-282300-
...WEST CENTRAL VALLEYS...

CITY           SKY/WX    TMP DP  RH WIND       PRES   REMARKS
GRAND JUNCTION SUNNY     86  42  21 MISG      30.16F
MONTROSE       SUNNY     83  43  24 NW14      30.25F
EAGLE          MOSUNNY   79  39  24 SE8G17    30.31F
RIFLE          SUNNY     84  42  22 VRB3      30.22F
DELTA          SUNNY     87  45  22 NW5       30.20F
NUCLA          SUNNY     86  32  14 E8        30.27F
$$

COZ017>023-064>068-282300-
...SOUTHWEST COLORADO...

CITY           SKY/WX    TMP DP  RH WIND       PRES   REMARKS
DURANGO        SUNNY     83  33  16 VRB3      30.23F
CORTEZ         SUNNY     87  35  15 NW10G23   30.18F
PAGOSA SPRINGS MOSUNNY   80  28  15 SW13      30.31F
TELLURIDE      SUNNY     71  34  25 CALM      30.47F
WOLF CREEK PAS PTSUNNY   54  30  40 NE5       30.69S
$$

COZ009-010-012-014-032>034-037-058>063-282300-
...CENTRAL COLORADO...

CITY           SKY/WX    TMP DP  RH WIND       PRES   REMARKS
ASPEN          SUNNY     74  41  30 NW8G16    30.37F
BUENA VISTA    MOSUNNY   78  24  13 NW8G16    30.35S
COPPER MTN     CLOUDY    59  34  38 W8G22     30.69S
BERTHOUD PASS  FAIR      46  34  61 NW22G28   30.74S
COTTONWOOD PAS PTSUNNY   72  23  16 CALM      30.51F
GUNNISON       PTSUNNY   75  37  25 SW9       30.37F
KREMMLING      MOSUNNY   77  34  20 SE6       30.37F
LEADVILLE      MOSUNNY   65  30  27 NW10G20   30.52F
SALIDA         PTSUNNY   81  29  14 S3        30.38F
SUNLIGHT       CLOUDY    59  43  55 CALM      30.64F
WILKERSON PASS MOSUNNY   57  34  41 CALM      30.65S
$$

COZ069>075-282300-
...SAN LUIS VALLEY/SANGRE DE CRISTO MOUNTAINS...

CITY           SKY/WX    TMP DP  RH WIND       PRES   REMARKS
ALAMOSA        SUNNY     81  32  17 N6        30.31F
LA VETA PASS   MOSUNNY   64  39  39 NE12G20   30.54S
SAGUACHE       MOSUNNY   75  32  20 SE5       30.35F
$$

COZ035-036-038>040-282300-
...NORTHERN COLORADO FRONT RANGE...

CITY           SKY/WX    TMP DP  RH WIND       PRES   REMARKS
DENVER INTL AP MOSUNNY   85  41  21 N10G21    30.20F
DMNS CITY PARK   N/A     83  41  21 N17       30.20S
AURORA         MOSUNNY   83  43  24 N8        30.23F
FRONT RANGE AP MOSUNNY   84  39  20 N15G23    30.22F
ERIE MUNI ARPT MOSUNNY   85  39  19 N8        30.19S
BOULDER MUN AP PTSUNNY   81  41  24 NE9       30.20S
CENTENNIAL     MOSUNNY   82  44  26 N12G18    30.24F
BROOMFIELD     PTSUNNY   84  41  21 N7        30.23F
FORT COLLINS   MOSUNNY   84  43  23 N7        30.17S
LONGMONT       PTSUNNY   87  43  21 N7        30.20F
$$

COZ041-046-047-076>085-087-088-282300-
...PIKES PEAK/PALMER DIVIDE AND SOUTHERN FOOTHILLS...

CITY           SKY/WX    TMP DP  RH WIND       PRES   REMARKS
COLO. SPRINGS  MOSUNNY   82  39  21 N8        30.25F
A. F. ACADEMY  MOSUNNY   78  41  26 NE10      30.27F
ELLICOTT       MOSUNNY  N/A N/A N/A N7G17     30.24F
FALCON         MOSUNNY   77  40  26 MISG      30.32S
FORT CARSON    PTSUNNY   80  45  29 E6        30.22F
LIMON          SUNNY     81  44  27 N14G23    30.20F
MONUMENT HILL  SUNNY     73  37  27 NE13      30.33S
TRINIDAD       MOSUNNY   85  43  22 E8G18     30.22F
$$

COZ042>045-048>051-090-091-282300-
...NORTHEAST COLORADO...

CITY           SKY/WX    TMP DP  RH WIND       PRES   REMARKS
GREELEY ARPT   SUNNY     84  39  20 NE7       30.16F
AKRON          SUNNY     86  36  16 N14G29    30.14F
BURLINGTON     SUNNY     87  44  22 N14G24    30.09S
WRAY           SUNNY     92  37  14 N15G21    30.05S
STERLING       SUNNY     88  43  20 N14       30.08F
HOLYOKE        SUNNY     91  43  18 NW16      30.06F
FORT MORGAN    SUNNY     87  35  15 N10       30.14F
$$

COZ086-089-092>099-282300-
...SOUTHEAST COLORADO...

CITY           SKY/WX    TMP DP  RH WIND       PRES   REMARKS
PUEBLO         MOSUNNY   87  43  21 E10       30.14F
LA JUNTA       SUNNY     92  47  21 N13G18    30.10F
LAMAR          SUNNY     87  50  27 N10       30.04F
SPRINGFIELD      N/A     87  49  26 N9G20     30.10F
$$




USA.gov is the U.S. government's official web portal to all federal, state and local government web resources and services.